Regional Weather Roundup
Issued by NWS

Home | Current Version | Previous Version | Graphics & Text | Print | Product List | Glossary On
Versions: 1 2 3 4 5 6 7 8 9 10 11 12 13 14 15 16 17 18 19 20 21 22 23 24 25 26 27 28 29 30 31 32 33 34 35 36 37 38 39 40 41 42 43 44 45 46 47 48 49 50
000
ASUS45 KBOU 240107
RWRCO

WEATHER ROUNDUP FOR COLORADO
NATIONAL WEATHER SERVICE DENVER/BOULDER CO
700 PM MDT TUE SEP 23 2014

NOTE: "FAIR" INDICATES FEW OR NO CLOUDS BELOW 12000 FEET WITH NO
SIGNIFICANT WEATHER AND/OR OBSTRUCTIONS TO VISIBILITY.

COZ001>005-013-030-031-240200-
...NORTHWEST COLORADO...

CITY           SKY/WX    TMP DP  RH WIND       PRES   REMARKS
CRAIG          PTCLDY    63  49  60 SW5       30.23R
HAYDEN         MOCLDY    66  43  42 CALM      30.25R
MEEKER         PTCLDY    68  42  38 N3        30.24S
MOUNT WERNER   NOT AVBL
STEAMBOAT SPGS PTCLDY    64  44  48 W6        30.27R
WALDEN         CLEAR     54  41  62 W7        30.35R
$$

COZ006>008-011-240200-
...WEST CENTRAL VALLEYS...

CITY           SKY/WX    TMP DP  RH WIND       PRES   REMARKS
GRAND JUNCTION CLEAR     76  45  33 N8        30.12S
MONTROSE       CLEAR     75  47  36 N3        30.21S
EAGLE          PTCLDY    68  48  49 S5        30.27R
RIFLE          PTCLDY    71  49  45 CALM      30.17S
DELTA          CLEAR     80  41  25 W7        30.15S
NUCLA          CLEAR     73  37  27 NW5       30.23S
$$

COZ017>023-064>068-240200-
...SOUTHWEST COLORADO...

CITY           SKY/WX    TMP DP  RH WIND       PRES   REMARKS
DURANGO        CLEAR     71  40  32 W13       30.23S
CORTEZ         CLEAR     74  40  29 SW6       30.21R
PAGOSA SPRINGS CLEAR     68  37  31 W3        30.31R
TELLURIDE      NOT AVBL
WOLF CREEK PAS CLOUDY    46  36  66 SW10G17   30.59S
$$

COZ009-010-012-014-032>034-037-058>063-240200-
...CENTRAL COLORADO...

CITY           SKY/WX    TMP DP  RH WIND       PRES   REMARKS
ASPEN          PTCLDY    61  43  51 N3        30.33R
BUENA VISTA    PTCLDY    63  37  37 NW8       30.32R
COPPER MTN     MOCLDY    46  34  61 W22       30.60R
BERTHOUD PASS  MOCLDY    37  36  93 NW18G29   30.62R
COTTONWOOD PAS MOCLDY    61  34  36 W8        30.46R
GUNNISON       CLEAR     64  39  39 W5        30.34R
KREMMLING      CLEAR     59  43  55 W3        30.32R
LEADVILLE      PTCLDY    52  35  52 VRB3      30.46R
MONARCH PASS   PTCLDY    46  34  61 W15       30.71R
SALIDA         MOCLDY    69  37  30 W3        30.36R
SUNLIGHT       CLOUDY    52  43  71 CALM      30.55S
WILKERSON PASS NOT AVBL
$$

COZ069>075-240200-
...SAN LUIS VALLEY/SANGRE DE CRISTO MOUNTAINS...

CITY           SKY/WX    TMP DP  RH WIND       PRES   REMARKS
ALAMOSA        PTCLDY    66  37  34 N7        30.28R
LA VETA PASS   PTCLDY    54  36  50 S3        30.48S
SAGUACHE       NOT AVBL
$$

COZ035-036-038>040-240200-
...NORTHERN COLORADO FRONT RANGE...

CITY           SKY/WX    TMP DP  RH WIND       PRES   REMARKS
DENVER INTL AP MOCLDY    71  43  36 NE3       30.15R
DMNS CITY PARK   N/A     72  41  32 W2        30.14R
AURORA         MOCLDY    70  45  40 NW7       30.17R
FRONT RANGE AP NOT AVBL
ERIE MUNI ARPT PTCLDY    73  45  37 CALM      30.12R
BOULDER MUN AP MOCLDY    72  43  35 CALM      30.13R
CENTENNIAL     MOCLDY    70  43  37 N7        30.17S
BROOMFIELD     MOCLDY    73  41  31 CALM      30.16
FORT COLLINS   PTCLDY    73  45  35 NE3       30.12R
LONGMONT       MOCLDY    75  46  36 CALM      30.13R
$$

COZ041-046-047-076>085-087-088-240200-
...PIKES PEAK/PALMER DIVIDE AND SOUTHERN FOOTHILLS...

CITY           SKY/WX    TMP DP  RH WIND       PRES   REMARKS
COLO. SPRINGS  MOCLDY    72  39  30 N10       30.20R
A. F. ACADEMY  MOCLDY    68  40  35 N8        30.23R
ELLICOTT       NOT AVBL
FALCON         CLOUDY    67  38  34 N9        30.26R
FORT CARSON    MOCLDY    72  41  32 N14       30.17R
LIMON          CLOUDY    67  51  56 N7        30.15R
MONUMENT HILL  MOCLDY    63  39  42 N8        30.25S
TRINIDAD       PTCLDY    72  40  31 W5        30.13R
$$

COZ042>045-048>051-090-091-240200-
...NORTHEAST COLORADO...

CITY           SKY/WX    TMP DP  RH WIND       PRES   REMARKS
GREELEY ARPT   PTCLDY    73  43  33 NW3       30.10S
AKRON          MOCLDY    69  51  52 W5        30.09R
BURLINGTON     PTCLDY    68  55  63 CALM      30.06S
WRAY           PTCLDY    72  53  50 SW6       30.01S
STERLING       MOCLDY    70  48  46 NW6       30.03R
HOLYOKE        PTCLDY    72  50  46 W7        30.00S
FORT MORGAN    MOCLDY    71  43  37 W3        30.09S
$$

COZ086-089-092>099-240200-
...SOUTHEAST COLORADO...

CITY           SKY/WX    TMP DP  RH WIND       PRES   REMARKS
PUEBLO         PTCLDY    81  40  23 NE15      30.05R
LA JUNTA       MOCLDY    81  48  31 SW3       30.01R
LAMAR          PTCLDY    78  44  29 E8        29.97R
SPRINGFIELD      N/A     75  50  41 S8        30.03R
$$



USA.gov is the U.S. government's official web portal to all federal, state and local government web resources and services.